Hourly Data Report for May 28, 2021

MIRAMICHI RCS
NEW BRUNSWICK
Current Station Operator: ECCC - MSC

47°00'34.000" N
65°27'54.000" W
33.00 m
8100989
71744
ACQ

Download Data

Hourly Data (May 2021)
Hourly Data Report for May 28, 2021
TIME
LST
Temp Definition
°C
Dew Point Definition
°C
Rel Hum Definition
%
Precip. Amount Definition
mm

Wind Dir Definition
10's deg

Wind Spd Definition
km/h
Visibility Definition
km
Stn Press Definition
kPa
Hmdx Definition


Wind Chill Definition


Weather Definition


00:00 4.4 -3.5 56 LegendMM 29 10   101.05     LegendNANA
01:00 4.5 -3.5 56 LegendMM 26 13   101.07     LegendNANA
02:00 3.8 -4.3 55 LegendMM 26 13   101.09     LegendNANA
03:00 3.0 -4.9 56 LegendMM 26 12   101.08     LegendNANA
04:00 1.9 -4.7 61 LegendMM 26 11   101.03     LegendNANA
05:00 2.1 -5.1 59 LegendMM 26 14   101.05     LegendNANA
06:00 3.0 -4.9 56 LegendMM 26 13   101.08     LegendNANA
07:00 4.8 -5.0 49 LegendMM 28 17   101.10     LegendNANA
08:00 6.3 -6.1 41 LegendMM 29 23   101.11     LegendNANA
09:00 6.9 -5.9 39 LegendMM 29 23   101.13     LegendNANA
10:00 7.1 -5.5 40 LegendMM 29 22   101.13     LegendNANA
11:00 7.7 -5.5 39 LegendMM 29 26   101.11     LegendNANA
12:00 8.8 -5.0 37 LegendMM 28 27   101.07     LegendNANA
13:00 9.2 -6.1 33 LegendMM 29 25   101.05     LegendNANA
14:00 10.9 -4.7 33 LegendMM 30 18   101.04     LegendNANA
15:00 11.3 -5.6 30 LegendMM 30 22   101.06     LegendNANA
16:00 11.8 -5.4 30 LegendMM 31 18   101.03     LegendNANA
17:00 12.1 -6.3 27 LegendMM 31 18   101.07     LegendNANA
18:00 11.3 -6.2 29 LegendMM 31 20   101.12     LegendNANA
19:00 10.7 -6.4 29 LegendMM 31 12   101.21     LegendNANA
20:00 9.0 -5.4 36 LegendMM 32 7   101.30     LegendNANA
21:00 5.6 -1.9 58 LegendMM 29 6   101.38     LegendNANA
22:00 4.1 -0.8 70 LegendMM 28 3   101.43     LegendNANA
23:00 4.6 -2.0 63 LegendMM 23 1   101.49     LegendNANA

Notes on Data Quality.

Legend

  • E = Estimated
  • M = Missing
  • NA = Not Available*
  • [empty] = Indicates an unobserved value
Date modified: